Regional Weather Roundup
Issued by NWS

Home | Current Version | Previous Version | Text Only | Print | Product List | Glossary Off
Versions: 1 2 3 4 5 6 7 8 9 10 11 12 13 14 15 16 17 18 19 20 21 22 23 24 25 26 27 28 29 30 31 32 33 34 35 36 37 38 39 40 41 42 43 44 45 46 47 48 49 50

000
ASUS43 KBIS 040810
RWRND

NORTH DAKOTA REGIONAL WEATHER ROUNDUP
NATIONAL WEATHER SERVICE BISMARCK ND
300 AM CDT MON MAY 04 2015

NOTE: "FAIR" INDICATES FEW OR NO CLOUDS BELOW 12,000 FEET WITH NO
SIGNIFICANT WEATHER AND/OR OBSTRUCTIONS TO VISIBILITY.


NDZ001>003-009>011-017-040900-
NORTHWEST NORTH DAKOTA

CITY           SKY/WX    TMP DP  RH WIND       PRES   REMARKS
WILLISTON      FLURRIES  32  23  69 N3        30.12F
MINOT          CLEAR     38  26  62 SW6       30.12S
MINOT AFB      CLEAR     33  26  77 SW3       30.11F
$$

NDZ018>021-031>035-040>046-040900-
SOUTHWEST NORTH DAKOTA

CITY           SKY/WX    TMP DP  RH WIND       PRES   REMARKS
BISMARCK       PTCLDY    41  27  57 CALM      30.14R
DICKINSON      PTCLDY    39  26  59 CALM      30.11S
GARRISON         N/A     34  25  69 CALM      30.13S
HETTINGER ARPT MOCLDY    30  24  78 CALM      30.12F
$$

NDZ004>008-012>016-024-026-027-054-040900-
NORTHEAST NORTH DAKOTA

CITY           SKY/WX    TMP DP  RH WIND       PRES   REMARKS
GRAND FORKS    CLEAR     38  29  70 N3        30.10R
GRND FRKS AFB  CLEAR     37  26  65 N5        30.10R
DEVILS LAKE    CLEAR     39  28  65 N3        30.11S
$$

NDZ022-023-025-028>030-036>039-047>053-040900-
SOUTHEAST NORTH DAKOTA

CITY           SKY/WX    TMP DP  RH WIND       PRES   REMARKS
FARGO          CLEAR     41  26  55 N9        30.08R
JAMESTOWN      CLEAR     38  25  59 W3        30.11R
$$




USA.gov is the U.S. government's official web portal to all federal, state and local government web resources and services.